Tracking 25693 objects as of 1-Jul-2022
HD Live streaming from Space Station
objects crossing your sky now

OPS 6679 (VELA 8)

Track OPS 6679 (VELA 8) now!
OPS 6679 (VELA 8) is classified as:


NORAD ID: 2766
Int'l Code: 1967-040B
Perigee: 58,274.8 km
Apogee: 166,491.1 km
Inclination: 29.2 °
Period: 6,787.8 minutes
Semi major axis: 118753 km
RCS: Unknown
Launch date: April 28, 1967
Source: United States (US)
Launch site: AIR FORCE EASTERN TEST RANGE (AFETR)
aabbcc
Your satellite tracking list
Your tracking list is empty




NASA's NSSDC Master Catalog

Two Line Element Set (TLE):
1 02766U 67040B   22175.21736902 -.00001629  00000-0  00000-0 0  9994
2 02766  29.1916  27.6043 4556323  55.5306   0.1768  0.21214403  2398
Source of the keplerian elements: AFSPC